Regional Weather Roundup
Issued by NWS La Crosse, WI

Current Version | Previous Version | Text Only | Print | Product List | Glossary On
Versions: 1 2 3 4 5 6 7 8 9 10 11 12 13 14 15 16 17 18 19 20 21 22 23 24 25 26 27
000
ASUS43 KARX 040659
RWRARX

HOURLY WEATHER FOR THE UPPER MISSISSIPPI RIVER VALLEY
NATIONAL WEATHER SERVICE LA CROSSE WI
200 AM CDT TUE OCT 04 2022

NOTE: "FAIR" indicates few or no clouds below 12,000 feet with no
significant weater and/or obstructions to visibility.

MNZ077-085>088-093>096-040800
Southeast Minnesota

CITY           SKY/WX    TMP DP  RH WIND       PRES   REMARKS
ROCHESTER      PTCLDY    51  42  71 S7        30.23S
WINONA         PTCLDY    48  46  93 CALM      30.23F
AUSTIN         PTCLDY    52  45  76 CALM      30.22S
ALBERT LEA     MOCLDY    55  46  71 S6        30.20F
DODGE CENTER   PTCLDY    55  43  62 S10       30.21S
PRESTON        PTCLDY    51  43  72 S8        30.23F
OWATONNA       MOCLDY    57  45  62 SE10      30.19F
FARIBAULT      MOCLDY    61  45  55 S8        30.18F
$$

WIZ041-042-053>056-061-040800
Southwest Wisconsin

CITY           SKY/WX    TMP DP  RH WIND       PRES   REMARKS
LA CROSSE      NOT AVBL
SPARTA         NOT AVBL
VIROQUA        PTCLDY    53  48  82 SE6       30.25S
WIS DELLS      CLEAR     43  41  92 CALM      30.26S
PRAIRIE DU CHI PTCLDY    47  45  91 CALM      30.25F
BOSCOBEL       FOG       44  43  96 CALM      30.26F VSB 1/4
LONE ROCK      NOT AVBL
PLATTEVILLE    FAIR      50  40  68 SE6       30.26F
$$

WIZ017-030-034>036-043>045-040800
Central Wisconsin

CITY           SKY/WX    TMP DP  RH WIND       PRES   REMARKS
MEDFORD        CLOUDY    51  51 100 S3        30.24F
WAUSAU         PTCLDY    51  48  89 CALM      30.24F
BLACK RVR FLS  MOCLDY    48  47  97 CALM      30.24S
WIS RAPIDS     PTCLDY    49  46  90 CALM      30.26F
MARSHFIELD     MOCLDY    51  47  86 S3        30.24F
MAUSTON        FAIR      44  44 100 CALM      30.25S
CAMP DOUGLAS   CLOUDY    45  44  95 CALM      30.23S FOG
WAUTOMA        CLEAR     42  42 100 CALM      30.27S
$$

IAZ008>011-017>019-029-030-040800
Northeast Iowa

CITY           SKY/WX    TMP DP  RH WIND       PRES   REMARKS
WATERLOO       MOCLDY    52  43  71 SE6       30.22S
DUBUQUE        PTCLDY    49  41  74 CALM      30.26S
DECORAH        CLOUDY    54  43  66 S5        30.22F
MASON CITY     PTCLDY    49  43  80 S6        30.22F
CHARLES CITY   PTCLDY    52  45  76 SE5       30.23S
OELWEIN        CLEAR     50  41  71 SE7       30.24S
$$

Wind speeds are in miles per hour.

 Abbreviations used in the REMARKS:
VSB - Visibility in statute miles
WCI - Wind chill index
HX  - Heat Index



USA.gov is the U.S. government's official web portal to all federal, state and local government web resources and services.